UAL2405 KFLL-KIAD

Flight info

Callsign UAL2405
Flight time 1h 54m
Altitude 35000
Route FEALX2 ETECK DCT GRUBR Y299 SEELO DCT GARIC Q129 YERBA DCT MAYKR DCT TRSSK CAVLR6
Aircraft B739/M-VGDW/C

Departure

Time 2026-05-04 00:36
Airport Fort Lauderdale Hollywood International Airport (KFLL)

Arrival

Time 2026-05-04 02:31
Airport Washington Dulles International Airport (KIAD)
Time Latitude Longitude Altitude Speed Heading
2026-05-03 22:31 26.07341 -80.14128 15 ft 0 kts 110°
2026-05-03 22:51 26.07345 -80.14140 16 ft 4 kts 110°
2026-05-03 22:51 26.07354 -80.14168 17 ft 4 kts 104°
2026-05-03 22:51 26.07355 -80.14186 16 ft 2 kts 46°
2026-05-03 22:51 26.07339 -80.14191 16 ft 4 kts
2026-05-03 22:52 26.07337 -80.14191 16 ft 3 kts
2026-05-03 22:52 26.07350 -80.14191 16 ft 0 kts
2026-05-03 23:40 26.07361 -80.14191 16 ft 5 kts
2026-05-03 23:41 26.07411 -80.14191 15 ft 8 kts 360°
2026-05-03 23:41 26.07475 -80.14218 15 ft 12 kts 307°
2026-05-03 23:41 26.07486 -80.14331 15 ft 17 kts 270°
2026-05-03 23:41 26.07487 -80.14464 15 ft 18 kts 270°
2026-05-03 23:42 26.07488 -80.14598 15 ft 16 kts 270°
2026-05-03 23:42 26.07488 -80.14721 15 ft 15 kts 270°
2026-05-03 23:42 26.07487 -80.14838 15 ft 15 kts 270°
2026-05-03 23:42 26.07488 -80.14950 15 ft 14 kts 270°
2026-05-03 23:43 26.07488 -80.15056 15 ft 13 kts 270°
2026-05-03 23:43 26.07489 -80.15155 15 ft 12 kts 270°
2026-05-03 23:43 26.07490 -80.15240 15 ft 8 kts 270°
2026-05-03 23:43 26.07490 -80.15279 15 ft 4 kts 270°
2026-05-03 23:44 26.07490 -80.15307 15 ft 4 kts 269°
2026-05-03 23:44 26.07490 -80.15336 15 ft 3 kts 270°
2026-05-03 23:46 26.07490 -80.15347 15 ft 6 kts 270°
2026-05-03 23:47 26.07490 -80.15404 15 ft 5 kts 270°
2026-05-03 23:47 26.07491 -80.15410 15 ft 0 kts 270°
2026-05-03 23:50 26.07491 -80.15437 15 ft 0 kts 270°
2026-05-03 23:51 26.07491 -80.15454 15 ft 4 kts 270°
2026-05-03 23:51 26.07491 -80.15457 15 ft 0 kts 270°
2026-05-03 23:52 26.07491 -80.15476 15 ft 7 kts 270°
2026-05-03 23:53 26.07491 -80.15536 15 ft 7 kts 270°
2026-05-03 23:53 26.07491 -80.15541 15 ft 0 kts 270°
2026-05-03 23:53 26.07491 -80.15555 15 ft 0 kts 270°
2026-05-03 23:55 26.07491 -80.15565 15 ft 4 kts 270°
2026-05-03 23:55 26.07491 -80.15568 15 ft 0 kts 270°
2026-05-03 23:55 26.07491 -80.15586 15 ft 4 kts 270°
2026-05-03 23:56 26.07491 -80.15594 15 ft 0 kts 270°
2026-05-03 23:56 26.07491 -80.15620 15 ft 7 kts 270°
2026-05-03 23:56 26.07491 -80.15634 15 ft 0 kts 270°
2026-05-03 23:57 26.07491 -80.15642 15 ft 5 kts 270°
2026-05-03 23:57 26.07491 -80.15654 15 ft 0 kts 270°
2026-05-04 00:01 26.07492 -80.15676 15 ft 7 kts 270°
2026-05-04 00:02 26.07492 -80.15741 15 ft 7 kts 270°
2026-05-04 00:02 26.07492 -80.15752 15 ft 0 kts 270°
2026-05-04 00:02 26.07492 -80.15784 15 ft 7 kts 270°
2026-05-04 00:03 26.07492 -80.15797 15 ft 0 kts 270°
2026-05-04 00:04 26.07492 -80.15799 15 ft 0 kts 270°
2026-05-04 00:05 26.07492 -80.15803 15 ft 3 kts 270°
2026-05-04 00:06 26.07493 -80.15825 15 ft 2 kts 271°
2026-05-04 00:06 26.07493 -80.15839 15 ft 2 kts 271°
2026-05-04 00:06 26.07493 -80.15845 15 ft 0 kts 271°
2026-05-04 00:07 26.07493 -80.15864 15 ft 0 kts 270°
2026-05-04 00:08 26.07493 -80.15871 15 ft 4 kts 270°
2026-05-04 00:08 26.07493 -80.15919 15 ft 9 kts 270°
2026-05-04 00:09 26.07494 -80.15986 15 ft 7 kts 270°
2026-05-04 00:09 26.07494 -80.15997 15 ft 0 kts 270°
2026-05-04 00:09 26.07494 -80.15998 15 ft 1 kts 270°
2026-05-04 00:10 26.07494 -80.16024 15 ft 0 kts 270°
2026-05-04 00:12 26.07494 -80.16048 15 ft 0 kts 270°
2026-05-04 00:13 26.07494 -80.16050 15 ft 2 kts 270°
2026-05-04 00:13 26.07494 -80.16068 15 ft 0 kts 270°
2026-05-04 00:14 26.07494 -80.16070 15 ft 3 kts 270°
2026-05-04 00:14 26.07494 -80.16115 15 ft 7 kts 270°
2026-05-04 00:14 26.07495 -80.16123 15 ft 0 kts 270°
2026-05-04 00:15 26.07495 -80.16132 15 ft 0 kts 270°
2026-05-04 00:17 26.07495 -80.16133 15 ft 1 kts 270°
2026-05-04 00:17 26.07495 -80.16146 15 ft 0 kts 270°
2026-05-04 00:20 26.07495 -80.16147 15 ft 1 kts 270°
2026-05-04 00:20 26.07495 -80.16173 15 ft 6 kts 270°
2026-05-04 00:20 26.07495 -80.16196 15 ft 0 kts 270°
2026-05-04 00:22 26.07495 -80.16238 15 ft 4 kts 271°
2026-05-04 00:22 26.07495 -80.16240 15 ft 0 kts 270°
2026-05-04 00:22 26.07495 -80.16249 15 ft 5 kts 270°
2026-05-04 00:22 26.07496 -80.16270 15 ft 0 kts 270°
2026-05-04 00:24 26.07496 -80.16274 15 ft 4 kts 270°
2026-05-04 00:24 26.07496 -80.16299 15 ft 3 kts 270°
2026-05-04 00:24 26.07496 -80.16319 15 ft 0 kts 270°
2026-05-04 00:25 26.07496 -80.16335 15 ft 6 kts 270°
2026-05-04 00:25 26.07496 -80.16390 15 ft 7 kts 270°
2026-05-04 00:25 26.07496 -80.16432 15 ft 2 kts 270°
2026-05-04 00:26 26.07496 -80.16437 15 ft 0 kts 270°
2026-05-04 00:27 26.07496 -80.16453 15 ft 5 kts 270°
2026-05-04 00:28 26.07497 -80.16496 15 ft 5 kts 270°
2026-05-04 00:28 26.07497 -80.16528 15 ft 4 kts 270°
2026-05-04 00:28 26.07497 -80.16573 15 ft 8 kts 270°
2026-05-04 00:28 26.07499 -80.16599 15 ft 0 kts 280°
2026-05-04 00:31 26.07509 -80.16625 16 ft 7 kts 303°
2026-05-04 00:31 26.07533 -80.16640 15 ft 0 kts 353°
2026-05-04 00:32 26.07542 -80.16641 15 ft 6 kts 354°
2026-05-04 00:32 26.07581 -80.16643 17 ft 0 kts 359°
2026-05-04 00:33 26.07582 -80.16643 17 ft 2 kts 359°
2026-05-04 00:34 26.07628 -80.16643 16 ft 9 kts
2026-05-04 00:34 26.07688 -80.16623 17 ft 10 kts 54°
2026-05-04 00:34 26.07694 -80.16596 19 ft 0 kts 86°
2026-05-04 00:35 26.07695 -80.16562 17 ft 25 kts 89°
2026-05-04 00:36 26.07693 -80.16074 18 ft 100 kts 90°
2026-05-04 00:36 26.07689 -80.15056 15 ft 160 kts 89°
2026-05-04 00:36 26.07675 -80.13721 467 ft 177 kts 90°
2026-05-04 00:36 26.07645 -80.12339 1230 ft 183 kts 90°
2026-05-04 00:37 26.07669 -80.10826 1557 ft 208 kts 87°
2026-05-04 00:37 26.07725 -80.09127 1769 ft 230 kts 88°
2026-05-04 00:37 26.07765 -80.07302 2177 ft 241 kts 88°
2026-05-04 00:37 26.07791 -80.05439 2716 ft 246 kts 89°
2026-05-04 00:38 26.07811 -80.03518 3269 ft 251 kts 89°
2026-05-04 00:38 26.07841 -80.01579 3799 ft 253 kts 84°
2026-05-04 00:38 26.08432 -79.99752 4108 ft 255 kts 55°
2026-05-04 00:38 26.09506 -79.98094 4457 ft 275 kts 52°
2026-05-04 00:39 26.10663 -79.96356 5057 ft 284 kts 52°
2026-05-04 00:39 26.11847 -79.94570 5786 ft 288 kts 52°
2026-05-04 00:39 26.13041 -79.92755 6492 ft 294 kts 52°
2026-05-04 00:39 26.14258 -79.90899 7139 ft 299 kts 52°
2026-05-04 00:40 26.15486 -79.89020 7864 ft 301 kts 52°
2026-05-04 00:40 26.16729 -79.87119 8561 ft 305 kts 52°
2026-05-04 00:40 26.17983 -79.85199 9278 ft 308 kts 52°
2026-05-04 00:40 26.19257 -79.83248 9930 ft 314 kts 52°
2026-05-04 00:41 26.20557 -79.81256 10398 ft 326 kts 52°
2026-05-04 00:41 26.21938 -79.79143 10554 ft 348 kts 52°
2026-05-04 00:41 26.23402 -79.76897 10778 ft 366 kts 52°
2026-05-04 00:41 26.24920 -79.74564 11216 ft 375 kts 52°
2026-05-04 00:42 26.26460 -79.72196 11828 ft 379 kts 52°
2026-05-04 00:42 26.28010 -79.69813 12441 ft 382 kts 52°
2026-05-04 00:42 26.29593 -79.67420 13002 ft 386 kts 50°
2026-05-04 00:42 26.31352 -79.65192 13566 ft 389 kts 44°
2026-05-04 00:43 26.33262 -79.63030 14086 ft 393 kts 43°
2026-05-04 00:43 26.35218 -79.60876 14578 ft 397 kts 43°
2026-05-04 00:43 26.37194 -79.58688 15069 ft 402 kts 43°
2026-05-04 00:43 26.39173 -79.56465 15576 ft 405 kts 43°
2026-05-04 00:44 26.41160 -79.54203 16072 ft 409 kts 44°
2026-05-04 00:44 26.43157 -79.51912 16552 ft 414 kts 44°
2026-05-04 00:44 26.45168 -79.49594 17017 ft 418 kts 44°
2026-05-04 00:44 26.47201 -79.47247 17499 ft 421 kts 44°
2026-05-04 00:45 26.49248 -79.44881 17967 ft 425 kts 44°
2026-05-04 00:45 26.51289 -79.42523 18405 ft 429 kts 44°
2026-05-04 00:45 26.53372 -79.40117 18802 ft 432 kts 44°
2026-05-04 00:45 26.55511 -79.37744 19192 ft 434 kts 36°
2026-05-04 00:46 26.58002 -79.35845 19584 ft 433 kts 27°
2026-05-04 00:46 26.60589 -79.34110 19998 ft 435 kts 26°
2026-05-04 00:46 26.63208 -79.32394 20378 ft 438 kts 26°
2026-05-04 00:46 26.65850 -79.30661 20772 ft 442 kts 26°
2026-05-04 00:47 26.68504 -79.28901 21151 ft 445 kts 26°
2026-05-04 00:47 26.71168 -79.27115 21530 ft 448 kts 26°
2026-05-04 00:47 26.73848 -79.25301 21904 ft 452 kts 27°
2026-05-04 00:47 26.76547 -79.23466 22270 ft 455 kts 27°
2026-05-04 00:48 26.79258 -79.21616 22651 ft 458 kts 27°
2026-05-04 00:48 26.81988 -79.19750 23009 ft 461 kts 26°
2026-05-04 00:48 26.84700 -79.17896 23355 ft 464 kts 26°
2026-05-04 00:48 26.87463 -79.16007 23689 ft 467 kts 26°
2026-05-04 00:49 26.90244 -79.14105 23980 ft 469 kts 26°
2026-05-04 00:49 26.93039 -79.12192 24285 ft 471 kts 26°
2026-05-04 00:49 26.95846 -79.10270 24580 ft 474 kts 26°
2026-05-04 00:49 26.98665 -79.08339 24877 ft 476 kts 26°
2026-05-04 00:50 27.01500 -79.06396 25172 ft 479 kts 26°
2026-05-04 00:50 27.04349 -79.04442 25467 ft 481 kts 26°
2026-05-04 00:50 27.07210 -79.02479 25751 ft 484 kts 26°
2026-05-04 00:50 27.10089 -79.00503 26025 ft 487 kts 26°
2026-05-04 00:51 27.12985 -78.98513 26299 ft 489 kts 26°
2026-05-04 00:51 27.15898 -78.96510 26584 ft 492 kts 26°
2026-05-04 00:51 27.18823 -78.94498 26852 ft 494 kts 26°
2026-05-04 00:51 27.21763 -78.92473 27118 ft 497 kts 26°
2026-05-04 00:52 27.24719 -78.90437 27383 ft 499 kts 26°
2026-05-04 00:52 27.27647 -78.88419 27641 ft 502 kts 27°
2026-05-04 00:52 27.30634 -78.86358 27901 ft 504 kts 27°
2026-05-04 00:52 27.33631 -78.84289 28164 ft 506 kts 27°
2026-05-04 00:53 27.36641 -78.82211 28399 ft 509 kts 27°
2026-05-04 00:53 27.39713 -78.80238 28623 ft 506 kts 18°
2026-05-04 00:53 27.43035 -78.79117 28822 ft 494 kts
2026-05-04 00:53 27.46435 -78.78604 29116 ft 492 kts 359°
2026-05-04 00:54 27.49845 -78.78159 29341 ft 495 kts 359°
2026-05-04 00:54 27.53276 -78.77723 29532 ft 498 kts 359°
2026-05-04 00:54 27.56730 -78.77273 29760 ft 501 kts 359°
2026-05-04 00:54 27.60205 -78.76800 29990 ft 504 kts 359°
2026-05-04 00:55 27.63698 -78.76307 30197 ft 506 kts 360°
2026-05-04 00:55 27.67199 -78.75800 30423 ft 508 kts 360°
2026-05-04 00:55 27.70711 -78.75283 30706 ft 508 kts 360°
2026-05-04 00:55 27.74217 -78.74763 31009 ft 507 kts 359°
2026-05-04 00:56 27.77714 -78.74244 31273 ft 508 kts 359°
2026-05-04 00:56 27.81227 -78.73725 31529 ft 509 kts 359°
2026-05-04 00:56 27.84733 -78.73208 31805 ft 509 kts 359°
2026-05-04 00:56 27.88202 -78.72697 32081 ft 509 kts 359°
2026-05-04 00:57 27.91717 -78.72179 32339 ft 510 kts 358°
2026-05-04 00:57 27.95237 -78.71661 32585 ft 510 kts 358°
2026-05-04 00:57 27.98758 -78.71142 32866 ft 510 kts 358°
2026-05-04 00:57 28.02283 -78.70622 33144 ft 510 kts 358°
2026-05-04 00:58 28.05806 -78.70102 33397 ft 510 kts 357°
2026-05-04 00:58 28.09325 -78.69582 33643 ft 510 kts 357°
2026-05-04 00:58 28.12854 -78.69061 33895 ft 510 kts 357°
2026-05-04 00:58 28.16377 -78.68539 34144 ft 510 kts 356°
2026-05-04 00:59 28.19892 -78.68017 34416 ft 508 kts 356°
2026-05-04 00:59 28.23351 -78.67503 34705 ft 506 kts 356°
2026-05-04 00:59 28.26833 -78.66985 34954 ft 505 kts 356°
2026-05-04 00:59 28.30314 -78.66469 35071 ft 506 kts 356°
2026-05-04 01:00 28.33814 -78.65953 35068 ft 507 kts 356°
2026-05-04 01:00 28.40809 -78.64915 35082 ft 505 kts 356°
2026-05-04 01:01 28.47765 -78.63878 35076 ft 504 kts 356°
2026-05-04 01:01 28.54709 -78.62843 35083 ft 502 kts 355°
2026-05-04 01:02 28.61635 -78.61811 35093 ft 501 kts 355°
2026-05-04 01:02 28.68514 -78.60785 35089 ft 502 kts 355°
2026-05-04 01:03 28.75447 -78.59750 35095 ft 502 kts 355°
2026-05-04 01:03 28.82384 -78.58712 35100 ft 503 kts 355°
2026-05-04 01:04 28.89337 -78.57670 35104 ft 504 kts 355°
2026-05-04 01:04 28.96302 -78.56624 35107 ft 506 kts 356°
2026-05-04 01:05 29.03294 -78.55573 35112 ft 507 kts 355°
2026-05-04 01:05 29.10306 -78.54517 35113 ft 508 kts 355°
2026-05-04 01:06 29.17282 -78.53465 35118 ft 509 kts 355°
2026-05-04 01:06 29.24312 -78.52403 35116 ft 509 kts 355°
2026-05-04 01:07 29.31358 -78.51337 35109 ft 509 kts 355°
2026-05-04 01:07 29.38384 -78.50272 35110 ft 509 kts 355°
2026-05-04 01:08 29.45403 -78.49208 35112 ft 508 kts 355°
2026-05-04 01:08 29.52268 -78.48824 35131 ft 483 kts 342°
2026-05-04 01:09 29.58910 -78.49637 35130 ft 478 kts 339°
2026-05-04 01:09 29.65540 -78.50517 35129 ft 480 kts 340°
2026-05-04 01:10 29.72210 -78.51291 35130 ft 482 kts 341°
2026-05-04 01:10 29.77777 -78.51892 35135 ft 483 kts 341°
2026-05-04 01:11 29.84479 -78.52608 35133 ft 484 kts 341°
2026-05-04 01:11 29.91196 -78.53333 35139 ft 485 kts 341°
2026-05-04 01:12 29.97921 -78.54063 35142 ft 486 kts 341°
2026-05-04 01:12 30.04662 -78.54796 35144 ft 486 kts 341°
2026-05-04 01:13 30.11410 -78.55530 35144 ft 487 kts 341°
2026-05-04 01:13 30.18244 -78.55635 35143 ft 508 kts 354°
2026-05-04 01:14 30.25287 -78.54546 35143 ft 511 kts 357°
2026-05-04 01:14 30.32311 -78.53427 35141 ft 508 kts 356°
2026-05-04 01:15 30.39306 -78.52421 35145 ft 505 kts 355°
2026-05-04 01:15 30.46205 -78.51405 35147 ft 505 kts 356°
2026-05-04 01:16 30.53206 -78.50263 35150 ft 504 kts 356°
2026-05-04 01:16 30.60136 -78.49115 35157 ft 503 kts 356°
2026-05-04 01:17 30.67061 -78.47981 35158 ft 501 kts 356°
2026-05-04 01:17 30.73979 -78.46857 35158 ft 501 kts 356°
2026-05-04 01:18 30.80834 -78.45743 35161 ft 500 kts 356°
2026-05-04 01:18 30.87737 -78.44619 35161 ft 500 kts 356°
2026-05-04 01:19 30.94625 -78.43496 35164 ft 500 kts 357°
2026-05-04 01:19 31.01515 -78.42370 35168 ft 499 kts 357°
2026-05-04 01:20 31.08356 -78.41250 35164 ft 499 kts 357°
2026-05-04 01:20 31.15238 -78.40122 35164 ft 499 kts 357°
2026-05-04 01:21 31.22122 -78.38991 35169 ft 499 kts 357°
2026-05-04 01:21 31.29006 -78.37859 35168 ft 499 kts 357°
2026-05-04 01:22 31.35880 -78.36727 35166 ft 499 kts 357°
2026-05-04 01:22 31.42744 -78.35595 35167 ft 498 kts 357°
2026-05-04 01:23 31.49610 -78.34461 35170 ft 497 kts 358°
2026-05-04 01:23 31.56467 -78.33327 35175 ft 497 kts 358°
2026-05-04 01:24 31.63307 -78.32194 35174 ft 496 kts 358°
2026-05-04 01:24 31.70138 -78.31061 35165 ft 495 kts 358°
2026-05-04 01:25 31.76967 -78.29927 35163 ft 495 kts 358°
2026-05-04 01:25 31.83734 -78.28801 35167 ft 494 kts 358°
2026-05-04 01:26 31.90538 -78.27667 35164 ft 494 kts 358°
2026-05-04 01:26 31.97344 -78.26531 35169 ft 493 kts 358°
2026-05-04 01:27 32.04146 -78.25404 35172 ft 493 kts 358°
2026-05-04 01:27 32.10942 -78.24398 35171 ft 492 kts 357°
2026-05-04 01:28 32.17758 -78.23433 35178 ft 493 kts 357°
2026-05-04 01:28 32.24574 -78.22454 35176 ft 493 kts 357°
2026-05-04 01:29 32.31352 -78.21465 35174 ft 494 kts 357°
2026-05-04 01:29 32.38177 -78.20464 35174 ft 494 kts 358°
2026-05-04 01:30 32.45004 -78.19460 35171 ft 494 kts 358°
2026-05-04 01:30 32.51839 -78.18454 35170 ft 494 kts 358°
2026-05-04 01:31 32.58666 -78.17449 35170 ft 494 kts 358°
2026-05-04 01:31 32.65497 -78.16441 35166 ft 494 kts 358°
2026-05-04 01:32 32.72321 -78.15433 35168 ft 494 kts 358°
2026-05-04 01:32 32.79092 -78.14431 35163 ft 493 kts 358°
2026-05-04 01:33 32.85912 -78.13420 35164 ft 493 kts 358°
2026-05-04 01:33 32.92726 -78.12409 35163 ft 492 kts 358°
2026-05-04 01:34 32.99525 -78.11399 35162 ft 492 kts 358°
2026-05-04 01:34 33.06327 -78.10386 35163 ft 492 kts 358°
2026-05-04 01:35 33.13111 -78.09375 35158 ft 491 kts 358°
2026-05-04 01:35 33.19889 -78.08363 35154 ft 491 kts 358°
2026-05-04 01:36 33.26624 -78.07355 35151 ft 490 kts 358°
2026-05-04 01:36 33.33393 -78.06341 35146 ft 490 kts 358°
2026-05-04 01:37 33.40161 -78.05326 35144 ft 490 kts 358°
2026-05-04 01:37 33.46915 -78.04311 35148 ft 489 kts 358°
2026-05-04 01:38 33.53677 -78.03293 35148 ft 489 kts 358°
2026-05-04 01:38 33.60429 -78.02276 35143 ft 489 kts 358°
2026-05-04 01:39 33.67185 -78.01256 35145 ft 489 kts 358°
2026-05-04 01:39 33.73937 -78.00234 35139 ft 489 kts 358°
2026-05-04 01:40 33.80676 -77.99213 35139 ft 488 kts 358°
2026-05-04 01:40 33.87418 -77.98195 35144 ft 487 kts 356°
2026-05-04 01:41 33.94113 -77.97729 35147 ft 479 kts 351°
2026-05-04 01:41 34.00731 -77.97589 35147 ft 478 kts 351°
2026-05-04 01:42 34.07384 -77.97432 35141 ft 478 kts 351°
2026-05-04 01:42 34.14043 -77.97216 35131 ft 478 kts 351°
2026-05-04 01:43 34.20700 -77.96974 35137 ft 478 kts 351°
2026-05-04 01:43 34.27356 -77.96729 35134 ft 478 kts 351°
2026-05-04 01:44 34.33993 -77.96487 35136 ft 477 kts 351°
2026-05-04 01:44 34.40620 -77.96246 35132 ft 476 kts 351°
2026-05-04 01:45 34.47197 -77.96007 35129 ft 475 kts 351°
2026-05-04 01:45 34.57091 -77.95647 35128 ft 473 kts 352°
2026-05-04 01:46 34.63670 -77.95407 35133 ft 472 kts 352°
2026-05-04 01:46 34.70238 -77.95167 35135 ft 471 kts 352°
2026-05-04 01:47 34.76786 -77.94928 35133 ft 470 kts 352°
2026-05-04 01:47 34.83322 -77.94689 35127 ft 469 kts 352°
2026-05-04 01:48 34.89811 -77.94451 35139 ft 469 kts 352°
2026-05-04 01:48 34.96337 -77.94212 35138 ft 469 kts 352°
2026-05-04 01:49 35.02855 -77.93973 35138 ft 469 kts 352°
2026-05-04 01:49 35.09383 -77.93732 35137 ft 469 kts 352°
2026-05-04 01:50 35.15914 -77.93491 35133 ft 470 kts 352°
2026-05-04 01:50 35.22457 -77.93249 35114 ft 470 kts 352°
2026-05-04 01:51 35.29000 -77.93006 35108 ft 470 kts 352°
2026-05-04 01:51 35.35557 -77.92696 35110 ft 472 kts 354°
2026-05-04 01:52 35.42135 -77.92190 35136 ft 473 kts 354°
2026-05-04 01:52 35.48703 -77.91662 35138 ft 473 kts 354°
2026-05-04 01:53 35.55268 -77.91157 35139 ft 472 kts 354°
2026-05-04 01:53 35.61813 -77.90668 35125 ft 471 kts 354°
2026-05-04 01:54 35.68350 -77.90181 35115 ft 469 kts 354°
2026-05-04 01:54 35.74821 -77.89699 35112 ft 468 kts 354°
2026-05-04 01:55 35.81305 -77.89214 35095 ft 466 kts 354°
2026-05-04 01:55 35.84538 -77.88971 34831 ft 463 kts 355°
2026-05-04 01:55 35.87733 -77.88728 34594 ft 456 kts 355°
2026-05-04 01:56 35.90884 -77.88487 34355 ft 450 kts 355°
2026-05-04 01:56 35.94000 -77.88251 34121 ft 446 kts 355°
2026-05-04 01:56 35.97081 -77.88019 33854 ft 442 kts 355°
2026-05-04 01:56 36.00140 -77.87790 33593 ft 438 kts 354°
2026-05-04 01:57 36.03176 -77.87563 33327 ft 435 kts 354°
2026-05-04 01:57 36.06148 -77.87341 33063 ft 433 kts 354°
2026-05-04 01:57 36.09150 -77.87116 32808 ft 430 kts 354°
2026-05-04 01:57 36.12137 -77.86892 32546 ft 428 kts 354°
2026-05-04 01:58 36.14105 -77.86744 32378 ft 427 kts 354°
2026-05-04 01:58 36.18063 -77.86446 32041 ft 425 kts 354°
2026-05-04 01:58 36.20015 -77.86299 31883 ft 424 kts 354°
2026-05-04 01:58 36.22959 -77.86077 31635 ft 423 kts 354°
2026-05-04 01:59 36.25893 -77.85856 31386 ft 422 kts 354°
2026-05-04 01:59 36.28816 -77.85635 31144 ft 420 kts 354°
2026-05-04 01:59 36.31733 -77.85413 30899 ft 419 kts 354°
2026-05-04 01:59 36.34635 -77.85193 30653 ft 417 kts 354°
2026-05-04 02:00 36.38465 -77.84903 30342 ft 415 kts 354°
2026-05-04 02:00 36.41381 -77.84681 30086 ft 413 kts 354°
2026-05-04 02:00 36.43279 -77.84537 29900 ft 412 kts 354°
2026-05-04 02:00 36.46136 -77.84319 29623 ft 410 kts 354°
2026-05-04 02:01 36.48971 -77.84156 29340 ft 405 kts 352°
2026-05-04 02:01 36.51742 -77.84097 29150 ft 400 kts 351°
2026-05-04 02:01 36.57246 -77.84063 29120 ft 396 kts 350°
2026-05-04 02:02 36.62773 -77.84026 29122 ft 397 kts 351°
2026-05-04 02:02 36.68296 -77.83955 29118 ft 396 kts 351°
2026-05-04 02:03 36.73805 -77.83872 29108 ft 395 kts 351°
2026-05-04 02:03 36.79285 -77.83787 29112 ft 394 kts 351°
2026-05-04 02:04 36.84838 -77.83711 29129 ft 406 kts 351°
2026-05-04 02:04 36.90598 -77.83632 29124 ft 422 kts 351°
2026-05-04 02:05 36.96517 -77.83537 29092 ft 426 kts 352°
2026-05-04 02:05 37.02450 -77.83435 29086 ft 426 kts 352°
2026-05-04 02:06 37.08340 -77.83340 29074 ft 425 kts 352°
2026-05-04 02:06 37.14176 -77.83243 29064 ft 407 kts 351°
2026-05-04 02:07 37.16959 -77.83194 29060 ft 394 kts 351°
2026-05-04 02:07 37.19695 -77.83154 29080 ft 391 kts 351°
2026-05-04 02:07 37.25174 -77.83084 28705 ft 396 kts 351°
2026-05-04 02:08 37.27918 -77.83042 28274 ft 393 kts 351°
2026-05-04 02:08 37.30631 -77.82997 27867 ft 388 kts 351°
2026-05-04 02:08 37.33318 -77.82952 27402 ft 384 kts 351°
2026-05-04 02:08 37.35974 -77.82909 26972 ft 380 kts 351°
2026-05-04 02:09 37.38606 -77.82868 26542 ft 376 kts 351°
2026-05-04 02:09 37.41216 -77.82828 26117 ft 373 kts 351°
2026-05-04 02:09 37.43767 -77.82790 25690 ft 370 kts 351°
2026-05-04 02:09 37.46362 -77.82751 25268 ft 367 kts 351°
2026-05-04 02:10 37.48874 -77.82714 24859 ft 364 kts 351°
2026-05-04 02:10 37.51402 -77.82676 24448 ft 362 kts 352°
2026-05-04 02:10 37.53908 -77.82638 24037 ft 359 kts 352°
2026-05-04 02:10 37.56399 -77.82601 23627 ft 357 kts 352°
2026-05-04 02:11 37.58877 -77.82564 23144 ft 355 kts 352°
2026-05-04 02:11 37.61336 -77.82526 22694 ft 352 kts 352°
2026-05-04 02:11 37.63773 -77.82487 22269 ft 349 kts 352°
2026-05-04 02:11 37.66201 -77.82060 21788 ft 363 kts 11°
2026-05-04 02:12 37.68554 -77.80835 21342 ft 366 kts 15°
2026-05-04 02:12 37.70886 -77.79505 20798 ft 368 kts 16°
2026-05-04 02:12 37.72995 -77.78290 20331 ft 369 kts 16°
2026-05-04 02:12 37.75557 -77.76829 19766 ft 369 kts 16°
2026-05-04 02:13 37.77900 -77.75508 19253 ft 369 kts 16°
2026-05-04 02:13 37.80218 -77.74208 19115 ft 357 kts 16°
2026-05-04 02:13 37.82463 -77.72953 18894 ft 349 kts 15°
2026-05-04 02:13 37.84681 -77.71721 18478 ft 348 kts 15°
2026-05-04 02:14 37.86897 -77.70491 18006 ft 348 kts 16°
2026-05-04 02:14 37.89107 -77.69261 17574 ft 346 kts 16°
2026-05-04 02:14 37.91298 -77.68039 17170 ft 340 kts 16°
2026-05-04 02:14 37.93450 -77.66835 16601 ft 336 kts 16°
2026-05-04 02:15 37.95561 -77.65657 15950 ft 335 kts 17°
2026-05-04 02:15 37.97695 -77.64465 15348 ft 333 kts 17°
2026-05-04 02:15 37.99802 -77.63287 14821 ft 329 kts 17°
2026-05-04 02:15 38.01885 -77.62121 14284 ft 325 kts 17°
2026-05-04 02:16 38.03949 -77.60965 13715 ft 322 kts 18°
2026-05-04 02:16 38.05987 -77.59814 13159 ft 319 kts 19°
2026-05-04 02:16 38.07981 -77.58573 12611 ft 316 kts 21°
2026-05-04 02:16 38.09920 -77.57315 12275 ft 310 kts 21°
2026-05-04 02:17 38.11833 -77.56082 11950 ft 308 kts 21°
2026-05-04 02:17 38.13736 -77.54868 11652 ft 313 kts 21°
2026-05-04 02:17 38.15705 -77.53617 11340 ft 317 kts 21°
2026-05-04 02:17 38.17680 -77.52356 11011 ft 317 kts 21°
2026-05-04 02:18 38.19637 -77.51102 10693 ft 313 kts 21°
2026-05-04 02:18 38.21574 -77.49861 10371 ft 309 kts 21°
2026-05-04 02:18 38.23489 -77.48636 10072 ft 306 kts 21°
2026-05-04 02:18 38.25431 -77.47680 9926 ft 290 kts 11°
2026-05-04 02:19 38.27334 -77.47027 9678 ft 282 kts
2026-05-04 02:19 38.29268 -77.46404 9206 ft 285 kts
2026-05-04 02:19 38.31169 -77.45872 9055 ft 275 kts
2026-05-04 02:19 38.33050 -77.45637 9014 ft 270 kts 352°
2026-05-04 02:20 38.34905 -77.45853 9018 ft 266 kts 348°
2026-05-04 02:20 38.36736 -77.46110 9019 ft 265 kts 349°
2026-05-04 02:20 38.38575 -77.46338 9027 ft 266 kts 350°
2026-05-04 02:20 38.40425 -77.46543 9028 ft 267 kts 350°
2026-05-04 02:21 38.42285 -77.46732 9009 ft 269 kts 352°
2026-05-04 02:21 38.44181 -77.46762 8738 ft 275 kts 356°
2026-05-04 02:21 38.46091 -77.46710 8506 ft 273 kts 356°
2026-05-04 02:21 38.47984 -77.46662 8265 ft 270 kts 356°
2026-05-04 02:22 38.49852 -77.46623 8029 ft 266 kts 356°
2026-05-04 02:22 38.51681 -77.46591 7744 ft 267 kts 356°
2026-05-04 02:22 38.53539 -77.46562 7453 ft 267 kts 356°
2026-05-04 02:22 38.55404 -77.46535 7162 ft 268 kts 356°
2026-05-04 02:23 38.57275 -77.46509 6821 ft 270 kts 356°
2026-05-04 02:23 38.59167 -77.46482 6469 ft 272 kts 356°
2026-05-04 02:23 38.61064 -77.46455 6084 ft 273 kts 357°
2026-05-04 02:23 38.62938 -77.46426 5967 ft 262 kts 357°
2026-05-04 02:24 38.64705 -77.46397 5870 ft 246 kts 357°
2026-05-04 02:24 38.66367 -77.46371 5762 ft 231 kts 357°
2026-05-04 02:24 38.67923 -77.46347 5655 ft 216 kts 356°
2026-05-04 02:24 38.69381 -77.46326 5518 ft 203 kts 356°
2026-05-04 02:25 38.70760 -77.46308 5237 ft 196 kts 356°
2026-05-04 02:25 38.72122 -77.46293 4870 ft 195 kts 357°
2026-05-04 02:25 38.73500 -77.46276 4369 ft 200 kts 358°
2026-05-04 02:25 38.74871 -77.46255 4070 ft 194 kts 358°
2026-05-04 02:26 38.76197 -77.46235 3813 ft 187 kts 358°
2026-05-04 02:26 38.77499 -77.46217 3562 ft 188 kts 358°
2026-05-04 02:26 38.78813 -77.46198 3310 ft 189 kts 358°
2026-05-04 02:26 38.80096 -77.46179 3053 ft 181 kts 358°
2026-05-04 02:27 38.81291 -77.46160 2827 ft 163 kts 358°
2026-05-04 02:27 38.82375 -77.46144 2586 ft 150 kts 358°
2026-05-04 02:27 38.83407 -77.46130 2397 ft 148 kts 358°
2026-05-04 02:27 38.84442 -77.46116 2197 ft 149 kts 359°
2026-05-04 02:28 38.85477 -77.46101 1991 ft 148 kts 359°
2026-05-04 02:28 38.86504 -77.46086 1787 ft 147 kts 359°
2026-05-04 02:28 38.87531 -77.46071 1595 ft 148 kts 359°
2026-05-04 02:28 38.88560 -77.46056 1392 ft 148 kts 359°
2026-05-04 02:29 38.89589 -77.46041 1181 ft 148 kts 360°
2026-05-04 02:29 38.90627 -77.46034 940 ft 149 kts 360°
2026-05-04 02:29 38.91662 -77.46032 689 ft 147 kts
2026-05-04 02:29 38.92677 -77.46009 516 ft 146 kts
2026-05-04 02:30 38.93696 -77.45988 366 ft 147 kts
2026-05-04 02:30 38.94685 -77.45973 277 ft 136 kts
2026-05-04 02:30 38.95533 -77.45958 282 ft 103 kts
2026-05-04 02:30 38.95989 -77.45952 276 ft 50 kts
2026-05-04 02:31 38.96328 -77.45947 273 ft 48 kts
2026-05-04 02:31 38.96647 -77.45942 277 ft 43 kts
2026-05-04 02:31 38.96870 -77.45935 279 ft 18 kts
2026-05-04 02:31 38.96927 -77.45819 282 ft 17 kts 90°
2026-05-04 02:32 38.96927 -77.45681 281 ft 14 kts 90°
2026-05-04 02:32 38.96903 -77.45582 282 ft 12 kts 159°
2026-05-04 02:32 38.96823 -77.45576 280 ft 11 kts 180°
2026-05-04 02:32 38.96742 -77.45577 280 ft 13 kts 180°
2026-05-04 02:33 38.96619 -77.45578 278 ft 19 kts 180°
2026-05-04 02:33 38.96482 -77.45580 276 ft 20 kts 180°
2026-05-04 02:33 38.96351 -77.45582 276 ft 18 kts 180°
2026-05-04 02:33 38.96231 -77.45584 276 ft 17 kts 180°
2026-05-04 02:34 38.96115 -77.45585 276 ft 16 kts 180°
2026-05-04 02:34 38.96004 -77.45587 278 ft 16 kts 181°
2026-05-04 02:34 38.95898 -77.45589 281 ft 15 kts 181°
2026-05-04 02:34 38.95795 -77.45590 281 ft 14 kts 180°
2026-05-04 02:35 38.95697 -77.45591 281 ft 14 kts 180°
2026-05-04 02:35 38.95603 -77.45593 282 ft 13 kts 180°
2026-05-04 02:35 38.95513 -77.45594 283 ft 13 kts 180°
2026-05-04 02:35 38.95425 -77.45595 281 ft 12 kts 181°
2026-05-04 02:36 38.95339 -77.45597 280 ft 12 kts 181°
2026-05-04 02:36 38.95255 -77.45598 280 ft 12 kts 181°
2026-05-04 02:36 38.95172 -77.45600 280 ft 13 kts 181°
2026-05-04 02:36 38.95080 -77.45601 279 ft 14 kts 180°
2026-05-04 02:37 38.94988 -77.45602 280 ft 13 kts 180°
2026-05-04 02:37 38.94899 -77.45603 281 ft 13 kts 181°
2026-05-04 02:37 38.94811 -77.45605 282 ft 12 kts 180°
2026-05-04 02:37 38.94741 -77.45606 287 ft 7 kts 180°
2026-05-04 02:38 38.94686 -77.45600 282 ft 9 kts 153°
2026-05-04 02:38 38.94668 -77.45524 288 ft 11 kts 90°
2026-05-04 02:38 38.94668 -77.45428 292 ft 11 kts 90°
2026-05-04 02:38 38.94667 -77.45323 294 ft 15 kts 90°
2026-05-04 02:39 38.94667 -77.45184 296 ft 16 kts 90°
2026-05-04 02:39 38.94666 -77.45107 296 ft 5 kts 89°
2026-05-04 02:39 38.94665 -77.45051 296 ft 7 kts 97°
2026-05-04 02:39 38.94625 -77.45031 298 ft 8 kts 184°
2026-05-04 02:40 38.94588 -77.45037 296 ft 4 kts 187°
2026-05-04 02:40 38.94584 -77.45038 296 ft 0 kts 188°